QPF
0.00 0.00 0.00 0.00 0.00 0.00 0.00 0.00 0.00 0.00 0.00 0.00 0.00 0.00 0.00 0.00 0.00 0.00 0.00 0.00 0.00 0.00 0.00 0.00 0.00 0.00 0.00 0.00 0.00 0.00 0.01 0.01 0.02 0.02 0.03 0.07 0.16 0.14 0.12 0.10 0.08 0.06 0.06 0.06
0.00 0.00 0.00 0.00 0.00 0.00 0.00 0.00 0.00 0.00 0.00 0.00 0.00 0.00 0.00 0.00 0.00 0.00 0.00 0.00 0.00 0.00 0.00 0.00 0.00 0.00 0.00 0.00 0.00 0.00 0.01 0.01 0.01 0.01 0.02 0.05 0.12 0.10 0.08 0.08 0.07 0.05 0.06 0.09
0.00 0.00 0.00 0.00 0.00 0.00 0.00 0.00 0.00 0.00 0.00 0.00 0.00 0.00 0.00 0.00 0.00 0.00 0.00 0.00 0.00 0.00 0.00 0.00 0.00 0.00 0.00 0.00 0.00 0.00 0.00 0.01 0.01 0.01 0.02 0.04 0.08 0.05 0.04 0.04 0.06 0.05 0.06 0.10
0.00 0.00 0.00 0.00 0.00 0.00 0.00 0.00 0.00 0.00 0.00 0.00 0.00 0.00 0.00 0.00 0.00 0.00 0.00 0.00 0.00 0.00 0.00 0.00 0.00 0.00 0.00 0.00 0.00 0.00 0.00 0.01 0.01 0.01 0.02 0.02 0.01 0.02 0.02 0.03 0.04 0.05 0.05 0.07
0.00 0.00 0.00 0.00 0.00 0.00 0.00 0.00 0.00 0.00 0.00 0.00 0.00 0.00 0.00 0.00 0.00 0.00 0.00 0.00 0.00 0.00 0.00 0.00 0.00 0.00 0.00 0.00 0.01 0.01 0.02 0.03 0.05 0.03 0.02 0.02 0.01 0.02 0.02 0.02 0.03 0.05 0.05 0.06
0.00 0.00 0.00 0.00 0.00 0.00 0.00 0.00 0.00 0.00 0.00 0.00 0.00 0.00 0.00 0.00 0.00 0.00 0.00 0.00 0.00 0.00 0.00 0.00 0.00 0.00 0.00 0.00 0.00 0.01 0.01 0.02 0.03 0.03 0.02 0.01 0.01 0.01 0.02 0.02 0.03 0.03 0.04 0.05
0.00 0.00 0.00 0.00 0.00 0.00 0.00 0.00 0.00 0.00 0.00 0.00 0.00 0.00 0.00 0.00 0.00 0.00 0.00 0.00 0.00 0.00 0.00 0.00 0.00 0.00 0.00 0.00 0.01 0.01 0.01 0.02 0.04 0.03 0.02 0.01 0.02 0.02 0.01 0.02 0.02 0.03 0.02 0.03
0.00 0.00 0.00 0.00 0.00 0.00 0.00 0.00 0.00 0.01 0.00 0.00 0.00 0.00 0.00 0.00 0.00 0.00 0.00 0.00 0.00 0.00 0.00 0.00 0.00 0.00 0.00 0.00 0.01 0.01 0.01 0.02 0.03 0.02 0.02 0.01 0.01 0.02 0.02 0.02 0.02 0.03 0.02 0.03
0.00 0.00 0.00 0.00 0.00 0.00 0.00 0.00 0.00 0.00 0.00 0.00 0.00 0.00 0.00 0.00 0.00 0.00 0.00 0.00 0.00 0.00 0.01 0.01 0.01 0.00 0.00 0.01 0.01 0.02 0.02 0.02 0.02 0.02 0.02 0.02 0.02 0.02 0.02 0.02 0.03 0.03 0.03 0.03
0.00 0.00 0.00 0.00 0.00 0.00 0.00 0.00 0.00 0.00 0.00 0.00 0.00 0.00 0.00 0.00 0.00 0.00 0.00 0.00 0.01 0.01 0.01 0.01 0.01 0.01 0.01 0.02 0.02 0.03 0.05 0.03 0.02 0.01 0.02 0.02 0.02 0.02 0.02 0.02 0.03 0.02 0.02 0.03
0.00 0.00 0.00 0.00 0.00 0.00 0.00 0.00 0.00 0.00 0.00 0.00 0.00 0.00 0.00 0.00 0.00 0.00 0.01 0.01 0.01 0.01 0.01 0.01 0.01 0.01 0.01 0.01 0.01 0.01 0.01 0.01 0.01 0.01 0.02 0.02 0.02 0.03 0.03 0.02 0.03 0.02 0.02 0.03
0.00 0.00 0.00 0.00 0.00 0.00 0.00 0.00 0.00 0.01 0.01 0.00 0.00 0.00 0.00 0.00 0.00 0.00 0.01 0.01 0.02 0.02 0.02 0.01 0.01 0.01 0.01 0.01 0.01 0.01 0.01 0.02 0.02 0.03 0.04 0.05 0.04 0.02 0.03 0.02 0.02 0.03 0.04 0.05
0.00 0.00 0.00 0.00 0.00 0.00 0.00 0.00 0.00 0.00 0.01 0.01 0.00 0.00 0.00 0.00 0.00 0.01 0.01 0.01 0.02 0.02 0.02 0.02 0.02 0.02 0.01 0.01 0.01 0.01 0.01 0.02 0.03 0.03 0.04 0.04 0.04 0.05 0.06 0.05 0.04 0.03 0.03 0.04
0.00 0.00 0.00 0.00 0.00 0.00 0.00 0.00 0.00 0.00 0.00 0.00 0.00 0.00 0.00 0.00 0.00 0.00 0.01 0.00 0.01 0.02 0.01 0.02 0.02 0.02 0.02 0.01 0.01 0.01 0.01 0.01 0.02 0.03 0.04 0.04 0.05 0.06 0.06 0.06 0.05 0.04 0.04 0.04
0.00 0.00 0.00 0.00 0.00 0.00 0.00 0.00 0.00 0.00 0.00 0.00 0.00 0.00 0.00 0.00 0.00 0.01 0.01 0.01 0.01 0.02 0.03 0.03 0.03 0.04 0.05 0.05 0.04 0.03 0.03 0.03 0.03 0.05 0.06 0.05 0.04 0.03 0.03 0.03 0.04 0.04 0.04 0.04
0.00 0.00 0.00 0.00 0.00 0.00 0.00 0.00 0.00 0.00 0.00 0.00 0.00 0.00 0.00 0.00 0.00 0.01 0.01 0.01 0.01 0.01 0.02 0.03 0.04 0.03 0.03 0.04 0.05 0.04 0.02 0.03 0.05 0.06 0.06 0.05 0.05 0.05 0.04 0.04 0.04 0.03 0.04 0.06
0.00 0.00 0.00 0.00 0.00 0.01 0.00 0.00 0.00 0.00 0.00 0.00 0.00 0.00 0.00 0.00 0.00 0.01 0.01 0.01 0.01 0.01 0.01 0.02 0.02 0.02 0.02 0.03 0.03 0.03 0.03 0.03 0.04 0.05 0.06 0.05 0.04 0.04 0.04 0.03 0.03 0.03 0.03 0.05
0.00 0.00 0.00 0.00 0.01 0.00 0.00 0.00 0.00 0.00 0.01 0.00 0.01 0.00 0.00 0.01 0.01 0.01 0.01 0.01 0.01 0.02 0.02 0.01 0.02 0.02 0.02 0.02 0.02 0.02 0.03 0.05 0.05 0.05 0.05 0.04 0.03 0.04 0.04 0.03 0.02 0.03 0.04 0.04
0.00 0.00 0.00 0.00 0.01 0.00 0.00 0.00 0.00 0.00 0.01 0.01 0.00 0.00 0.00 0.01 0.01 0.01 0.01 0.01 0.01 0.02 0.02 0.02 0.01 0.01 0.02 0.02 0.02 0.03 0.04 0.07 0.07 0.05 0.04 0.03 0.03 0.04 0.05 0.06 0.05 0.04 0.04 0.04
0.00 0.00 0.00 0.01 0.01 0.01 0.00 0.00 0.01 0.01 0.02 0.01 0.00 0.01 0.01 0.02 0.02 0.02 0.01 0.01 0.01 0.01 0.01 0.02 0.03 0.02 0.03 0.03 0.04 0.05 0.06 0.06 0.06 0.04 0.02 0.02 0.02 0.03 0.04 0.06 0.10 0.11 0.08 0.06
0.00 0.00 0.00 0.01 0.02 0.01 0.00 0.00 0.01 0.02 0.02 0.01 0.01 0.01 0.01 0.02 0.01 0.01 0.01 0.01 0.01 0.01 0.02 0.03 0.04 0.04 0.04 0.04 0.04 0.05 0.05 0.05 0.04 0.04 0.03 0.02 0.01 0.01 0.03 0.07 0.09 0.12 0.12 0.09
0.00 0.00 0.00 0.01 0.01 0.01 0.01 0.00 0.01 0.02 0.01 0.01 0.01 0.01 0.01 0.01 0.01 0.01 0.01 0.01 0.01 0.02 0.02 0.03 0.03 0.04 0.04 0.04 0.03 0.03 0.03 0.03 0.04 0.03 0.03 0.03 0.03 0.03 0.03 0.04 0.08 0.11 0.09 0.10
0.01 0.01 0.01 0.01 0.01 0.01 0.01 0.00 0.01 0.01 0.01 0.01 0.01 0.01 0.01 0.01 0.01 0.01 0.02 0.02 0.02 0.02 0.02 0.03 0.03 0.04 0.04 0.03 0.03 0.03 0.03 0.03 0.03 0.03 0.04 0.05 0.04 0.03 0.03 0.03 0.04 0.08 0.08 0.08
0.01 0.01 0.01 0.01 0.01 0.01 0.01 0.00 0.01 0.01 0.01 0.01 0.01 0.01 0.01 0.01 0.01 0.02 0.02 0.02 0.03 0.03 0.03 0.03 0.03 0.04 0.04 0.04 0.05 0.04 0.04 0.04 0.03 0.04 0.04 0.04 0.04 0.04 0.03 0.03 0.03 0.04 0.06 0.07
0.01 0.01 0.01 0.01 0.01 0.01 0.01 0.01 0.01 0.01 0.01 0.01 0.01 0.01 0.02 0.02 0.02 0.02 0.02 0.03 0.03 0.04 0.04 0.05 0.05 0.06 0.06 0.05 0.05 0.05 0.05 0.04 0.05 0.05 0.05 0.05 0.05 0.05 0.05 0.04 0.05 0.05 0.06 0.06
0.01 0.01 0.01 0.01 0.01 0.01 0.01 0.01 0.01 0.01 0.02 0.02 0.02 0.02 0.03 0.04 0.04 0.03 0.04 0.04 0.03 0.03 0.04 0.04 0.05 0.05 0.05 0.04 0.04 0.04 0.03 0.03 0.04 0.05 0.07 0.08 0.08 0.07 0.06 0.06 0.06 0.06 0.05 0.05
MSLP
1006.35 1006.92 1007.41 1007.81 1008.11 1008.32 1008.44 1008.48 1008.41 1008.24 1007.94 1007.54 1007.05 1006.52 1006.01 1005.58 1005.29 1005.18 1005.26 1005.52 1005.93 1006.43 1006.97 1007.49 1007.98 1008.40 1008.77 1009.09 1009.39 1009.69 1009.98 1010.27 1010.56 1010.83 1011.07 1011.28 1011.47 1011.64 1011.81 1011.99 1012.18 1012.39 1012.61 1012.84
1006.87 1007.35 1007.75 1008.06 1008.30 1008.49 1008.61 1008.66 1008.63 1008.47 1008.18 1007.75 1007.20 1006.58 1005.96 1005.40 1004.99 1004.77 1004.77 1004.99 1005.37 1005.88 1006.45 1007.02 1007.54 1008.01 1008.40 1008.75 1009.06 1009.36 1009.66 1009.97 1010.27 1010.56 1010.82 1011.04 1011.24 1011.41 1011.56 1011.72 1011.90 1012.09 1012.30 1012.53
1007.24 1007.61 1007.90 1008.14 1008.33 1008.50 1008.65 1008.75 1008.77 1008.66 1008.41 1007.98 1007.41 1006.72 1006.00 1005.32 1004.78 1004.43 1004.32 1004.43 1004.75 1005.22 1005.78 1006.36 1006.91 1007.41 1007.85 1008.24 1008.60 1008.95 1009.30 1009.66 1010.00 1010.33 1010.62 1010.87 1011.07 1011.23 1011.36 1011.49 1011.63 1011.80 1011.99 1012.21
1007.45 1007.71 1007.90 1008.07 1008.23 1008.40 1008.59 1008.76 1008.87 1008.85 1008.66 1008.27 1007.70 1006.97 1006.17 1005.38 1004.70 1004.20 1003.93 1003.91 1004.11 1004.49 1004.98 1005.53 1006.08 1006.60 1007.08 1007.54 1007.97 1008.41 1008.85 1009.29 1009.72 1010.11 1010.45 1010.73 1010.93 1011.08 1011.19 1011.28 1011.39 1011.53 1011.70 1011.92
1007.56 1007.71 1007.81 1007.91 1008.05 1008.24 1008.48 1008.74 1008.95 1009.03 1008.94 1008.62 1008.08 1007.34 1006.49 1005.60 1004.78 1004.12 1003.68 1003.49 1003.52 1003.76 1004.14 1004.61 1005.12 1005.64 1006.15 1006.67 1007.19 1007.73 1008.28 1008.83 1009.36 1009.84 1010.25 1010.57 1010.79 1010.93 1011.01 1011.08 1011.15 1011.26 1011.41 1011.63
1007.67 1007.70 1007.72 1007.76 1007.87 1008.08 1008.37 1008.71 1009.02 1009.21 1009.22 1009.00 1008.52 1007.81 1006.93 1005.98 1005.05 1004.25 1003.63 1003.25 1003.09 1003.14 1003.37 1003.72 1004.15 1004.63 1005.15 1005.70 1006.30 1006.93 1007.59 1008.25 1008.89 1009.47 1009.95 1010.32 1010.57 1010.72 1010.79 1010.84 1010.88 1010.97 1011.12 1011.33
1007.88 1007.80 1007.73 1007.70 1007.77 1007.98 1008.29 1008.69 1009.07 1009.37 1009.49 1009.36 1008.97 1008.32 1007.47 1006.50 1005.51 1004.60 1003.84 1003.27 1002.93 1002.79 1002.83 1003.02 1003.32 1003.72 1004.20 1004.75 1005.37 1006.07 1006.81 1007.56 1008.29 1008.96 1009.51 1009.94 1010.24 1010.41 1010.49 1010.53 1010.57 1010.65 1010.79 1011.00
1008.24 1008.07 1007.90 1007.80 1007.81 1007.97 1008.27 1008.68 1009.11 1009.48 1009.69 1009.67 1009.38 1008.84 1008.07 1007.14 1006.15 1005.19 1004.34 1003.64 1003.13 1002.80 1002.65 1002.66 1002.80 1003.07 1003.45 1003.94 1004.54 1005.23 1006.00 1006.80 1007.59 1008.31 1008.93 1009.42 1009.76 1009.97 1010.09 1010.14 1010.20 1010.28 1010.43 1010.65
1008.77 1008.52 1008.26 1008.07 1008.00 1008.08 1008.32 1008.69 1009.12 1009.52 1009.80 1009.88 1009.73 1009.31 1008.68 1007.86 1006.95 1006.01 1005.14 1004.37 1003.73 1003.25 1002.93 1002.75 1002.70 1002.80 1003.02 1003.39 1003.90 1004.53 1005.26 1006.05 1006.85 1007.60 1008.25 1008.79 1009.18 1009.44 1009.60 1009.69 1009.78 1009.89 1010.04 1010.26
1009.44 1009.12 1008.78 1008.49 1008.32 1008.30 1008.44 1008.74 1009.12 1009.51 1009.83 1010.00 1009.97 1009.72 1009.26 1008.61 1007.84 1007.02 1006.20 1005.43 1004.74 1004.15 1003.67 1003.32 1003.08 1002.98 1003.02 1003.21 1003.56 1004.06 1004.69 1005.40 1006.15 1006.88 1007.55 1008.11 1008.55 1008.86 1009.08 1009.22 1009.34 1009.48 1009.65 1009.87
1010.14 1009.78 1009.39 1009.01 1008.73 1008.60 1008.63 1008.81 1009.12 1009.47 1009.81 1010.05 1010.14 1010.06 1009.79 1009.35 1008.78 1008.13 1007.43 1006.73 1006.05 1005.41 1004.84 1004.33 1003.92 1003.62 1003.45 1003.44 1003.59 1003.90 1004.37 1004.96 1005.62 1006.29 1006.93 1007.50 1007.97 1008.33 1008.59 1008.78 1008.95 1009.10 1009.28 1009.49
1010.77 1010.41 1009.99 1009.56 1009.20 1008.96 1008.87 1008.95 1009.15 1009.45 1009.77 1010.05 1010.25 1010.33 1010.26 1010.04 1009.70 1009.25 1008.72 1008.14 1007.52 1006.89 1006.26 1005.65 1005.10 1004.62 1004.25 1004.03 1003.97 1004.08 1004.37 1004.80 1005.33 1005.91 1006.50 1007.05 1007.52 1007.91 1008.21 1008.44 1008.62 1008.79 1008.96 1009.15
1011.26 1010.93 1010.52 1010.08 1009.67 1009.36 1009.18 1009.15 1009.27 1009.49 1009.78 1010.09 1010.36 1010.56 1010.66 1010.65 1010.52 1010.28 1009.93 1009.50 1008.98 1008.40 1007.76 1007.10 1006.45 1005.83 1005.30 1004.90 1004.65 1004.57 1004.68 1004.94 1005.33 1005.81 1006.32 1006.82 1007.28 1007.67 1007.98 1008.23 1008.41 1008.56 1008.70 1008.83
1011.58 1011.31 1010.94 1010.53 1010.13 1009.79 1009.56 1009.46 1009.49 1009.65 1009.89 1010.19 1010.50 1010.78 1011.01 1011.15 1011.20 1011.14 1010.97 1010.68 1010.28 1009.77 1009.17 1008.50 1007.80 1007.10 1006.47 1005.93 1005.53 1005.30 1005.25 1005.36 1005.62 1005.99 1006.42 1006.86 1007.28 1007.64 1007.94 1008.16 1008.32 1008.42 1008.49 1008.55
1011.74 1011.55 1011.27 1010.93 1010.58 1010.26 1010.01 1009.87 1009.85 1009.94 1010.13 1010.39 1010.70 1011.01 1011.31 1011.55 1011.72 1011.79 1011.75 1011.59 1011.29 1010.87 1010.33 1009.69 1009.00 1008.28 1007.60 1006.99 1006.50 1006.16 1006.00 1006.00 1006.15 1006.42 1006.76 1007.13 1007.49 1007.81 1008.06 1008.23 1008.32 1008.35 1008.33 1008.29
1011.80 1011.70 1011.52 1011.27 1011.01 1010.74 1010.53 1010.38 1010.32 1010.36 1010.49 1010.70 1010.97 1011.27 1011.57 1011.85 1012.08 1012.22 1012.27 1012.19 1011.98 1011.64 1011.17 1010.59 1009.94 1009.25 1008.57 1007.96 1007.44 1007.06 1006.83 1006.76 1006.83 1007.02 1007.28 1007.57 1007.86 1008.11 1008.29 1008.38 1008.39 1008.33 1008.20 1008.05
1011.82 1011.80 1011.72 1011.59 1011.42 1011.24 1011.07 1010.94 1010.88 1010.88 1010.95 1011.10 1011.30 1011.55 1011.81 1012.07 1012.29 1012.45 1012.53 1012.50 1012.35 1012.07 1011.67 1011.16 1010.57 1009.95 1009.33 1008.75 1008.25 1007.87 1007.63 1007.52 1007.54 1007.67 1007.86 1008.08 1008.29 1008.46 1008.56 1008.56 1008.48 1008.31 1008.08 1007.81
1011.87 1011.91 1011.91 1011.87 1011.79 1011.70 1011.59 1011.50 1011.44 1011.42 1011.44 1011.52 1011.65 1011.82 1012.01 1012.21 1012.39 1012.53 1012.60 1012.58 1012.45 1012.22 1011.87 1011.43 1010.92 1010.37 1009.82 1009.31 1008.87 1008.52 1008.29 1008.18 1008.17 1008.25 1008.39 1008.55 1008.69 1008.78 1008.79 1008.71 1008.54 1008.28 1007.96 1007.59
1011.95 1012.01 1012.07 1012.09 1012.10 1012.08 1012.04 1011.98 1011.93 1011.89 1011.89 1011.91 1011.97 1012.05 1012.17 1012.30 1012.42 1012.50 1012.54 1012.50 1012.38 1012.17 1011.86 1011.48 1011.03 1010.56 1010.08 1009.64 1009.26 1008.96 1008.76 1008.65 1008.64 1008.69 1008.78 1008.88 1008.96 1008.98 1008.92 1008.78 1008.54 1008.21 1007.83 1007.40
1012.05 1012.11 1012.18 1012.25 1012.30 1012.33 1012.33 1012.31 1012.28 1012.24 1012.21 1012.19 1012.19 1012.22 1012.27 1012.33 1012.38 1012.42 1012.41 1012.35 1012.21 1012.01 1011.72 1011.37 1010.98 1010.56 1010.15 1009.77 1009.44 1009.18 1009.01 1008.92 1008.89 1008.92 1008.97 1009.02 1009.05 1009.02 1008.91 1008.72 1008.45 1008.09 1007.68 1007.23
1012.13 1012.16 1012.22 1012.29 1012.36 1012.42 1012.45 1012.46 1012.44 1012.40 1012.36 1012.31 1012.28 1012.27 1012.27 1012.28 1012.29 1012.29 1012.24 1012.15 1012.01 1011.79 1011.52 1011.19 1010.83 1010.45 1010.08 1009.74 1009.45 1009.23 1009.07 1008.97 1008.94 1008.94 1008.96 1008.97 1008.95 1008.89 1008.75 1008.54 1008.26 1007.91 1007.52 1007.09
1012.16 1012.14 1012.16 1012.22 1012.28 1012.34 1012.39 1012.41 1012.40 1012.37 1012.32 1012.27 1012.23 1012.20 1012.17 1012.16 1012.14 1012.11 1012.05 1011.94 1011.78 1011.57 1011.29 1010.98 1010.64 1010.28 1009.94 1009.62 1009.35 1009.14 1008.98 1008.88 1008.82 1008.79 1008.78 1008.75 1008.70 1008.60 1008.45 1008.25 1007.98 1007.67 1007.32 1006.95
1012.11 1012.04 1012.02 1012.04 1012.08 1012.13 1012.17 1012.19 1012.19 1012.17 1012.13 1012.08 1012.03 1012.00 1011.97 1011.95 1011.92 1011.88 1011.81 1011.70 1011.53 1011.32 1011.06 1010.76 1010.43 1010.09 1009.76 1009.46 1009.20 1008.98 1008.82 1008.70 1008.61 1008.55 1008.49 1008.42 1008.33 1008.22 1008.06 1007.86 1007.62 1007.36 1007.07 1006.77
1011.98 1011.87 1011.81 1011.79 1011.81 1011.84 1011.87 1011.88 1011.87 1011.85 1011.81 1011.77 1011.73 1011.69 1011.66 1011.64 1011.61 1011.57 1011.51 1011.40 1011.25 1011.05 1010.81 1010.52 1010.21 1009.89 1009.59 1009.30 1009.04 1008.82 1008.64 1008.50 1008.38 1008.27 1008.17 1008.05 1007.93 1007.77 1007.60 1007.41 1007.20 1006.98 1006.76 1006.54
1011.82 1011.67 1011.58 1011.54 1011.53 1011.53 1011.54 1011.54 1011.52 1011.49 1011.45 1011.40 1011.35 1011.31 1011.28 1011.25 1011.23 1011.19 1011.13 1011.04 1010.91 1010.73 1010.51 1010.26 1009.99 1009.70 1009.42 1009.15 1008.91 1008.69 1008.50 1008.33 1008.17 1008.02 1007.86 1007.69 1007.52 1007.33 1007.13 1006.93 1006.73 1006.54 1006.37 1006.22
1011.65 1011.49 1011.38 1011.32 1011.29 1011.27 1011.26 1011.24 1011.20 1011.15 1011.09 1011.02 1010.95 1010.89 1010.85 1010.81 1010.77 1010.73 1010.68 1010.60 1010.49 1010.35 1010.17 1009.96 1009.73 1009.50 1009.26 1009.03 1008.81 1008.60 1008.40 1008.21 1008.02 1007.82 1007.61 1007.38 1007.14 1006.90 1006.67 1006.44 1006.24 1006.06 1005.92 1005.81
Thickness
5836 5829 5826 5834 5839 5839 5837 5834 5832 5839 5849 5841 5838 5841 5847 5849 5845 5840 5836 5833 5829 5828 5830 5827 5822 5819 5813 5807 5802 5797 5793 5790 5786 5784 5781 5778 5776 5777 5776 5776 5773 5770 5768 5767
5820 5821 5838 5842 5839 5834 5831 5827 5831 5839 5844 5838 5837 5841 5851 5851 5847 5846 5842 5837 5835 5833 5831 5827 5824 5821 5816 5811 5806 5801 5796 5794 5790 5788 5784 5782 5780 5779 5778 5777 5774 5772 5770 5768
5815 5830 5840 5830 5825 5822 5825 5826 5830 5830 5835 5838 5832 5832 5842 5850 5851 5850 5848 5847 5844 5839 5834 5830 5826 5823 5820 5815 5811 5808 5802 5798 5794 5791 5788 5785 5781 5780 5779 5776 5775 5774 5772 5770
5820 5832 5827 5822 5821 5822 5817 5835 5832 5828 5821 5823 5825 5815 5836 5846 5844 5845 5847 5848 5846 5845 5841 5837 5832 5827 5825 5822 5818 5812 5806 5801 5797 5793 5790 5786 5782 5780 5780 5779 5778 5775 5773 5771
5813 5822 5817 5814 5823 5827 5825 5834 5830 5826 5821 5818 5822 5814 5832 5845 5838 5844 5849 5851 5851 5850 5847 5842 5839 5834 5831 5827 5822 5816 5809 5803 5799 5795 5792 5787 5786 5784 5783 5781 5778 5775 5775 5772
5819 5827 5825 5824 5831 5831 5827 5822 5819 5821 5819 5799 5814 5810 5818 5840 5840 5845 5851 5852 5852 5852 5850 5846 5843 5839 5833 5830 5825 5819 5810 5804 5801 5797 5794 5789 5787 5785 5782 5779 5778 5776 5776 5775
5801 5812 5823 5827 5816 5820 5818 5805 5792 5787 5791 5798 5819 5810 5821 5842 5849 5848 5849 5851 5852 5852 5849 5845 5841 5837 5833 5829 5825 5819 5812 5806 5802 5799 5795 5792 5789 5786 5782 5780 5779 5777 5777 5775
5787 5792 5812 5818 5814 5810 5812 5812 5789 5777 5785 5803 5808 5806 5828 5845 5849 5851 5851 5850 5850 5849 5848 5846 5842 5839 5834 5830 5825 5819 5813 5807 5804 5800 5796 5794 5791 5788 5786 5783 5782 5779 5778 5778
5792 5791 5815 5819 5823 5818 5806 5809 5823 5806 5798 5792 5803 5815 5829 5839 5839 5842 5843 5843 5843 5844 5845 5844 5842 5839 5835 5830 5826 5821 5814 5809 5805 5802 5797 5794 5791 5788 5787 5784 5781 5781 5778 5777
5796 5784 5803 5810 5814 5812 5814 5813 5806 5796 5775 5773 5792 5801 5811 5819 5825 5832 5833 5835 5837 5840 5841 5842 5841 5838 5836 5832 5827 5822 5816 5809 5805 5802 5798 5795 5791 5787 5785 5783 5780 5779 5777 5775
5793 5780 5789 5795 5792 5795 5796 5795 5796 5796 5795 5779 5779 5798 5824 5819 5821 5823 5827 5830 5831 5833 5835 5837 5837 5837 5835 5831 5826 5820 5815 5809 5803 5800 5797 5794 5790 5787 5784 5781 5779 5777 5775 5773
5782 5781 5777 5786 5801 5806 5802 5798 5793 5778 5777 5785 5785 5797 5824 5822 5822 5821 5821 5823 5825 5826 5829 5831 5831 5830 5829 5826 5822 5817 5813 5808 5802 5798 5794 5791 5789 5786 5782 5779 5777 5775 5773 5772
5770 5767 5757 5765 5777 5787 5788 5793 5795 5793 5785 5780 5779 5792 5815 5814 5813 5813 5813 5814 5815 5816 5819 5821 5821 5820 5819 5818 5816 5813 5809 5805 5800 5795 5790 5787 5784 5781 5778 5776 5773 5772 5771 5769
5762 5760 5757 5757 5770 5778 5775 5780 5785 5783 5778 5776 5783 5792 5797 5800 5800 5802 5803 5804 5806 5807 5808 5809 5809 5808 5808 5808 5806 5804 5802 5800 5796 5791 5786 5782 5780 5778 5776 5774 5771 5769 5767 5765
5753 5750 5755 5764 5772 5773 5772 5773 5775 5774 5778 5776 5783 5787 5789 5791 5792 5792 5794 5796 5796 5796 5798 5798 5799 5799 5798 5797 5797 5795 5793 5792 5789 5785 5782 5778 5777 5774 5771 5768 5765 5764 5763 5762
5740 5738 5744 5747 5760 5762 5759 5765 5767 5769 5772 5773 5775 5775 5787 5786 5786 5783 5784 5785 5785 5786 5788 5790 5790 5790 5790 5788 5787 5786 5785 5782 5780 5777 5775 5774 5771 5768 5764 5762 5760 5758 5757 5756
5726 5725 5726 5734 5748 5746 5741 5756 5759 5761 5765 5766 5763 5768 5774 5771 5771 5773 5775 5777 5776 5779 5780 5781 5781 5782 5781 5781 5780 5778 5776 5775 5773 5770 5769 5767 5764 5760 5757 5756 5753 5750 5749 5748
5710 5712 5719 5725 5724 5712 5744 5759 5758 5753 5755 5759 5759 5761 5763 5762 5763 5766 5768 5767 5767 5769 5770 5771 5773 5773 5774 5774 5772 5771 5769 5767 5765 5762 5760 5758 5755 5753 5750 5747 5745 5744 5743 5741
5711 5705 5709 5714 5713 5722 5732 5741 5743 5740 5740 5749 5748 5749 5752 5754 5753 5752 5756 5757 5757 5758 5760 5761 5763 5764 5763 5763 5762 5761 5760 5758 5756 5754 5752 5750 5747 5745 5742 5739 5737 5736 5734 5734
5704 5701 5701 5703 5698 5703 5722 5733 5738 5733 5724 5737 5736 5736 5738 5740 5736 5738 5743 5745 5747 5748 5750 5751 5752 5752 5750 5751 5751 5749 5748 5747 5745 5744 5742 5740 5738 5736 5735 5733 5730 5729 5727 5726
5687 5687 5690 5693 5693 5708 5716 5722 5725 5707 5713 5723 5726 5726 5728 5727 5728 5730 5732 5733 5734 5736 5738 5739 5740 5739 5739 5740 5739 5737 5736 5735 5735 5734 5732 5730 5728 5726 5726 5723 5721 5719 5719 5717
5681 5684 5684 5688 5685 5692 5705 5708 5703 5701 5709 5712 5714 5716 5716 5717 5718 5720 5720 5720 5722 5723 5725 5727 5726 5726 5727 5728 5727 5724 5722 5723 5723 5722 5720 5718 5716 5716 5716 5712 5710 5709 5708 5706
5674 5679 5684 5684 5684 5688 5694 5694 5696 5698 5697 5700 5703 5705 5706 5706 5707 5708 5708 5709 5710 5711 5712 5714 5714 5713 5713 5714 5714 5711 5711 5711 5710 5708 5707 5706 5704 5704 5703 5701 5700 5699 5698 5698
5664 5668 5669 5669 5676 5680 5682 5684 5686 5688 5688 5691 5694 5695 5695 5695 5696 5696 5696 5697 5698 5699 5701 5701 5701 5700 5699 5700 5700 5699 5699 5698 5697 5695 5694 5694 5692 5691 5691 5690 5690 5690 5689 5686
5654 5657 5658 5658 5664 5667 5670 5672 5675 5676 5679 5681 5682 5684 5684 5684 5684 5685 5685 5686 5687 5688 5689 5689 5688 5687 5687 5687 5686 5687 5687 5686 5684 5683 5682 5681 5682 5680 5677 5677 5675 5675 5675 5673
5646 5648 5648 5652 5658 5657 5658 5664 5666 5666 5667 5669 5670 5671 5673 5673 5673 5674 5674 5675 5676 5677 5677 5676 5676 5676 5675 5675 5674 5674 5673 5673 5671 5670 5669 5670 5671 5669 5667 5665 5663 5659 5658 5658